Location: Gisborne
(38.6530°S, 178.0040°E)
Time: 18:32:37
(UTC+13:00)

Cosmos 1939 Rocket - Pass Details

Date: 24 January 2019
Orbit: 534 x 583 km, 97.4° (Epoch: 18 October)

Event Time Altitude Azimuth Distance (km) Brightness Sun altitude
Rises 21:32:59 0° 172° (S) 2,841 6.9 -11.4°
Reaches altitude 10° 21:35:11 10° 175° (S) 1,936 6.0 -11.8°
Maximum altitude 21:39:20 63° 255° (WSW) 667 3.5 -12.4°
Drops below altitude 10° 21:43:26 10° 336° (NNW) 1,909 5.4 -13.1°
Sets 21:45:35 0° 339° (NNW) 2,798 6.2 -13.4°
